FW2813 Weather Reports


time (UTC)temp
C
wind
direction
speed
KPH
gust
KPH
rain 1hr
cm
rain 24hr
cm
rain mn
cm
humidity
%
barometer
mb
20260508153009 13 66 8.0 17.7 0.00 3.45 0.03 66 1001.3
20260508151506 13 42 1.6 11.3 0.00 3.45 0.03 75 1001.6
20260508150018 12 85 4.8 16.1 0.00 3.45 0.03 71 1001.5
20260508144506 13 49 6.4 14.5 0.00 3.45 0.03 72 1001.5
20260508143009 13 81 3.2 9.7 0.00 3.45 0.03 78 1001.6
20260508141606 12 77 6.4 12.9 0.00 3.45 0.03 80 1001.7
20260508140110 12 45 1.6 11.3 0.00 3.45 0.03 85 1001.7
20260508134555 11 39 6.4 16.1 0.00 3.45 0.03 87 1001.7
20260508133105 11 297 1.6 8.0 0.00 3.45 0.03 92 1001.9
20260508131555 11 78 0.0 6.4 0.00 3.45 0.03 94 1002.0
20260508130048 11 48 3.2 9.7 0.00 3.45 0.03 95 1001.7
20260508124548 11 73 4.8 9.7 0.00 3.45 0.03 96 1001.9
20260508123046 10 16 3.2 12.9 0.00 3.45 0.03 97 1001.8
20260508121543 10 272 1.6 8.0 0.00 3.45 0.03 97 1001.7
20260508120044 10 50 3.2 8.0 0.03 3.53 0.03 98 1001.7
20260508114540 10 293 4.8 8.0 0.03 3.53 0.03 98 1001.7
20260508113039 8 297 0.0 6.4 0.03 3.53 0.03 97 1001.9
20260508111538 8 298 0.0 6.4 0.03 3.53 0.03 97 1002.0
20260508110036 7 288 0.0 3.2 0.00 3.51 0.00 97 1002.0
20260508104536 7 286 0.0 0.0 0.00 3.51 0.00 97 1001.8
20260508103035 6 286 1.6 3.2 0.00 3.51 0.00 97 1002.2
20260508101540 5 286 0.0 0.0 0.00 3.51 0.00 97 1002.2
20260508100035 5 286 0.0 0.0 0.00 3.51 0.00 97 1002.2
20260508094533 5 286 0.0 0.0 0.00 3.51 0.00 97 1002.2
20260508093036 5 286 0.0 0.0 0.00 3.51 0.00 97 1002.2
20260508091533 5 286 0.0 1.6 0.00 3.51 0.00 97 1002.1
20260508090034 5 286 0.0 0.0 0.00 3.51 0.00 97 1001.5
20260508084527 5 286 0.0 0.0 0.00 3.51 0.00 97 1001.4
20260508083027 6 286 0.0 0.0 0.00 3.51 0.00 97 1001.8
20260508081526 6 286 0.0 0.0 0.00 3.51 0.00 96 1002.0
20260508080035 6 286 0.0 0.0 0.00 3.51 0.00 97 1001.5
20260508074520 6 286 0.0 0.0 0.00 3.51 0.00 97 1001.5
20260508073020 6 286 0.0 1.6 0.00 3.51 0.00 97 1001.2
20260508071516 7 286 0.0 1.6 0.00 3.51 0.00 97 1001.3
20260508070021 7 286 0.0 1.6 0.00 3.51 0.00 97 1001.4
20260508064533 7 286 0.0 4.8 0.00 3.51 0.00 97 1001.5
20260508063010 7 286 0.0 0.0 0.00 3.51 0.00 97 1001.7
20260508061512 7 287 0.0 3.2 0.00 3.51 0.00 97 1001.4
20260508060008 8 287 0.0 3.2 0.00 3.51 0.00 97 1001.4
20260508054508 8 290 1.6 4.8 0.00 3.51 0.00 97 1001.5
20260508053005 8 286 0.0 0.0 0.00 3.51 0.00 97 1001.5
20260508051504 8 286 0.0 1.6 0.00 3.51 0.00 97 1001.5
20260508050007 8 286 0.0 0.0 0.00 3.53 0.00 97 1001.3
20260508044501 8 286 0.0 0.0 0.00 3.53 0.00 97 1001.3
20260508043105 8 286 0.0 0.0 0.00 3.53 0.00 97 1001.3
20260508041602 8 286 0.0 3.2 0.00 3.53 0.00 97 1001.5
20260508040101 9 286 0.0 3.2 0.00 3.53 0.00 97 1001.4
20260508034554 9 286 0.0 3.2 0.00 3.53 0.00 97 1001.7
20260508033051 9 286 0.0 6.4 0.00 3.53 0.00 97 1001.8
20260508031549 9 128 0.0 0.0 0.00 3.53 0.00 97 1001.8
20260508030053 9 128 0.0 0.0 0.00 3.53 3.53 97 1001.9
20260508024547 9 128 0.0 0.0 0.00 3.53 3.53 97 1002.0
20260508023046 9 127 0.0 0.0 0.00 3.53 3.53 97 1002.1
20260508021546 9 127 0.0 1.6 0.00 3.53 3.53 97 1002.1
20260508020048 9 127 0.0 0.0 0.00 3.53 3.53 97 1001.9
20260508014545 9 127 0.0 0.0 0.00 3.53 3.53 97 1002.1
20260508013045 9 127 0.0 0.0 0.00 3.53 3.53 97 1002.1
20260508011546 9 127 0.0 1.6 0.00 3.53 3.53 97 1002.1
20260508010043 9 127 0.0 3.2 0.00 3.53 3.53 97 1001.8
20260508004549 9 125 0.0 3.2 0.00 3.53 3.53 97 1001.8
20260508003048 9 125 0.0 3.2 0.00 3.53 3.53 96 1001.9
20260508001542 9 125 3.2 4.8 0.00 3.53 3.53 96 1001.9
20260508000040 9 125 0.0 0.0 0.00 3.53 3.53 97 1001.7
20260507234551 10 127 0.0 6.4 0.00 3.53 3.53 96 1001.6
20260507233053 10 127 1.6 4.8 0.00 3.53 3.53 97 1001.8
20260507231538 10 128 0.0 1.6 0.00 3.53 3.53 97 1002.1
20260507230040 10 128 0.0 0.0 0.00 3.53 3.53 97 1002.1
20260507224538 10 128 0.0 3.2 0.00 3.53 3.53 96 1002.1
20260507223050 10 128 0.0 8.0 0.00 3.53 3.53 96 1001.9
20260507221536 10 135 6.4 11.3 0.00 3.53 3.53 97 1002.0
20260507220039 10 131 3.2 6.4 0.00 3.53 3.53 96 1001.8
20260507214535 10 118 4.8 11.3 0.00 3.53 3.53 96 1001.9
20260507213035 10 121 4.8 12.9 0.03 3.53 3.53 96 1002.2
20260507211545 10 153 1.6 14.5 0.05 3.53 3.53 97 1002.6
20260507210040 10 177 4.8 14.5 0.08 3.53 3.53 97 1002.0
20260507204536 10 141 6.4 19.3 0.13 3.53 3.53 97 1001.9
20260507203031 10 131 11.3 22.5 0.20 3.51 3.51 96 1001.3
20260507201528 10 105 12.9 20.9 0.28 3.48 3.48 96 1001.9
20260507200025 10 149 8.0 16.1 0.41 3.43 3.43 96 1003.0
20260507194533 10 132 4.8 16.1 0.61 3.38 3.38 96 1003.3
20260507193022 10 114 9.7 17.7 0.86 3.30 3.30 96 1003.3
20260507191519 10 116 4.8 11.3 0.99 3.20 3.20 96 1003.8
20260507190029 10 141 3.2 12.9 1.14 3.05 3.05 96 1004.2
20260507184514 10 118 4.8 16.1 1.32 2.77 2.77 96 1004.5
20260507183016 10 130 1.6 8.0 1.85 2.44 2.44 96 1004.9
20260507181513 10 109 3.2 11.3 1.83 2.21 2.21 96 1004.9
20260507180017 10 214 6.4 16.1 1.63 1.88 1.88 96 1005.2
20260507174513 10 214 4.8 27.4 1.22 1.40 1.40 96 1005.7
20260507173017 9 189 1.6 12.9 0.43 0.56 0.56 96 1005.1
20260507171505 9 132 6.4 16.1 0.28 0.36 0.36 96 1004.9
20260507170002 9 129 6.4 17.7 0.18 0.25 0.25 95 1005.2
20260507164636 9 147 4.8 17.7 0.10 0.18 0.18 95 1005.5
20260507164501 9 153 4.8 17.7 0.10 0.18 0.18 95 1005.5
20260507163100 10 153 6.4 14.5 0.05 0.13 0.13 96 1005.9
20260507161600 10 124 6.4 17.7 0.00 0.08 0.08 96 1006.3
20260507160053 10 199 8.0 25.7 0.00 0.08 0.08 95 1006.8
20260507154551 9 153 6.4 19.3 0.00 0.08 0.08 95 1007.1